TimeEDT,TemperatureF,Dew PointF,Humidity,Sea Level PressureIn,VisibilityMPH,Wind Direction,Wind SpeedMPH,Gust SpeedMPH,PrecipitationIn,Events,Conditions,WindDirDegrees,DateUTC
12:53 AM,78.1,66.0,66,30.10,10.0,ESE,5.8,-,N/A,,Scattered Clouds,120,2013-05-18 04:53:00
1:53 AM,75.9,66.0,71,30.09,10.0,ESE,4.6,-,N/A,,Clear,120,2013-05-18 05:53:00
2:53 AM,75.0,66.9,76,30.08,10.0,ESE,3.5,-,N/A,,Clear,110,2013-05-18 06:53:00
3:53 AM,73.9,66.9,79,30.07,10.0,East,5.8,-,N/A,,Clear,100,2013-05-18 07:53:00
4:53 AM,73.9,68.0,82,30.07,10.0,ESE,3.5,-,N/A,,Clear,110,2013-05-18 08:53:00
5:53 AM,73.0,68.0,84,30.08,10.0,East,3.5,-,N/A,,Clear,100,2013-05-18 09:53:00
6:53 AM,73.0,69.1,87,30.09,10.0,ESE,3.5,-,N/A,,Partly Cloudy,110,2013-05-18 10:53:00
7:53 AM,75.0,70.0,84,30.10,9.0,SE,3.5,-,N/A,,Partly Cloudy,140,2013-05-18 11:53:00
8:53 AM,77.0,71.1,82,30.12,10.0,SE,4.6,-,N/A,,Partly Cloudy,140,2013-05-18 12:53:00
9:53 AM,80.1,70.0,71,30.13,10.0,Variable,3.5,-,N/A,,Partly Cloudy,0,2013-05-18 13:53:00
10:53 AM,81.0,72.0,74,30.12,10.0,SW,9.2,-,N/A,,Scattered Clouds,220,2013-05-18 14:53:00
11:53 AM,84.0,68.0,58,30.12,10.0,SW,8.1,-,N/A,,Partly Cloudy,230,2013-05-18 15:53:00
12:53 PM,84.9,69.1,59,30.10,10.0,SSW,11.5,-,N/A,,Partly Cloudy,200,2013-05-18 16:53:00
1:53 PM,86.0,66.0,51,30.09,10.0,SSW,10.4,-,N/A,,Partly Cloudy,210,2013-05-18 17:53:00
2:53 PM,87.8,64.4,46,30.07,10.0,WSW,9.2,-,N/A,,Clear,250,2013-05-18 18:53:00
3:53 PM,87.1,66.0,49,30.06,10.0,West,13.8,-,N/A,,Clear,270,2013-05-18 19:53:00
4:53 PM,86.0,61.0,43,30.04,10.0,West,12.7,-,N/A,,Partly Cloudy,270,2013-05-18 20:53:00
5:53 PM,84.9,63.0,48,30.03,10.0,West,10.4,-,N/A,,Partly Cloudy,280,2013-05-18 21:53:00
6:53 PM,84.0,62.1,47,30.04,10.0,West,9.2,-,N/A,,Partly Cloudy,270,2013-05-18 22:53:00
7:53 PM,81.0,64.9,58,30.04,10.0,WNW,5.8,-,N/A,,Partly Cloudy,290,2013-05-18 23:53:00
8:53 PM,79.0,66.9,66,30.05,10.0,WNW,8.1,-,N/A,,Partly Cloudy,290,2013-05-19 00:53:00
9:53 PM,77.0,69.1,76,30.06,10.0,WNW,5.8,-,N/A,,Partly Cloudy,290,2013-05-19 01:53:00
10:53 PM,77.0,70.0,79,30.09,10.0,NNE,4.6,-,N/A,,Partly Cloudy,30,2013-05-19 02:53:00
11:53 PM,77.0,70.0,79,30.09,10.0,NE,4.6,-,N/A,,Scattered Clouds,40,2013-05-19 03:53:00